Location: Sweet Grass
(48.9965°N, 111.9649°W)
Time: 14:56:13
(UTC+00:00)

SPROUT - Visible Passes

Search period start: 01 April 2023 00:00
Search period end: 11 April 2023 00:00
Orbit: 564 x 578 km, 98.0° (Epoch: 31 March)

Date Brightness Start Highest point End Pass type
(mag) Time Alt. Az. Time Alt. Az. Time Alt. Az.
01 Apr ? 08:36:14 15° N 08:36:14 15° N 08:36:57 10° N visible
02 Apr ? 08:38:15 15° NNW 08:38:15 15° NNW 08:39:03 10° NNW visible
03 Apr ? 08:40:12 16° NNW 08:40:12 16° NNW 08:41:06 10° NNW visible
04 Apr ? 08:42:06 17° NNW 08:42:06 17° NNW 08:43:05 10° NNW visible
05 Apr ? 07:07:49 11° NE 07:07:49 11° NE 07:08:02 10° NE visible
05 Apr ? 08:43:56 18° NNW 08:43:56 18° NNW 08:45:01 10° NNW visible
06 Apr ? 07:09:36 11° NE 07:09:36 11° NE 07:10:02 10° NNE visible
06 Apr ? 08:45:42 19° NNW 08:45:42 19° NNW 08:46:54 10° NNW visible
07 Apr ? 07:11:19 12° NE 07:11:19 12° NE 07:11:57 10° NNE visible
07 Apr ? 08:47:26 20° NNW 08:47:26 20° NNW 08:48:43 10° NNW visible
08 Apr ? 07:12:59 12° NE 07:12:59 12° NE 07:13:49 10° NNE visible
08 Apr ? 08:49:06 21° NNW 08:49:06 21° NNW 08:50:28 10° NNW visible
09 Apr ? 07:14:36 13° NE 07:14:36 13° NE 07:15:36 10° NNE visible
09 Apr ? 08:50:43 21° NNW 08:50:43 21° NNW 08:52:10 10° NNW visible
10 Apr ? 07:16:09 13° NE 07:16:09 13° NE 07:17:20 10° NNE visible
10 Apr ? 08:52:16 22° NNW 08:52:16 22° NNW 08:53:49 10° NNW visible
